Adana, Turkey

8:32 PM +03 on December 14, 2017 (GMT +0300)
Adana

Weather History for LTAF - March, 2013

Change the Weather History Date:

Wednesday, March 20, 2013

  Actual Average Record
Temperature  
Mean Temperature 58 °F -  
Max Temperature 71 °F 70 °F 78 °F (2001)
Min Temperature 46 °F 49 °F 37 °F (1997)
Degree Days  
Heating Degree Days 6    
Growing Degree Days 8 (Base 50)    
Moisture  
Dew Point 36 °F    
Average Humidity 46    
Maximum Humidity 71    
Minimum Humidity 23    
Precipitation  
Precipitation 0.00 in 0.08 in - ()
Sea Level Pressure  
Sea Level Pressure 30.00 in    
Wind  
Wind Speed 3 mph ()    
Max Wind Speed 12 mph    
Max Gust Speed -    
Visibility 3.1 miles    
Events      
Averages and records for this station are not official NWS values.
T = Trace of Precipitation, MM = Missing Value Source: Averaged Metar Reports

Daily Weather History Graph

Daily Weather History Graph

Search for Another Location

Airport or City:

Trip Planner

Search our weather history database for the weather conditions in past years. The results will help you decide how hot, cold, wet, or windy it might be!

Date:

Astronomy

Mar. 20, 2013 Rise Set
Actual Time 5:42 AM EET 5:50 PM EET
Civil Twilight 5:16 AM EET 6:16 PM EET
Nautical Twilight 4:46 AM EET 6:46 PM EET
Astronomical Twilight 4:15 AM EET 7:17 PM EET
Moon 11:15 AM EET (3/20) 12:58 AM EET (3/20)
Length of Visible Light 12h 59m
Length of Day
12h 08m
First Quarter, 57% of the Moon is Illuminated
Mar 20
First Quarter
Mar 27
Full
Apr 3
Last Quarter
Apr 10
New
Apr 18
First Quarter

Hourly Weather History & Observations

Time (EET) Temp. Windchill Dew Point Humidity Pressure Visibility Wind Dir Wind Speed Gust Speed Precip Events Conditions
12:20 AM 48.2 °F - 35.6 °F 62% 29.98 in 3.1 mi Calm Calm - N/A   Haze
12:50 AM 48.2 °F - 37.4 °F 66% 29.98 in 3.1 mi Variable 2.3 mph - N/A   Haze
1:20 AM 50.0 °F - 37.4 °F 62% 29.98 in 3.1 mi NNW 1.2 mph - N/A   Haze
1:50 AM 51.8 °F - 37.4 °F 58% 29.98 in 3.1 mi NNW 3.5 mph - N/A   Haze
2:20 AM 50.0 °F - 33.8 °F 54% 29.98 in 3.1 mi WNW 3.5 mph - N/A   Haze
2:50 AM 50.0 °F - 33.8 °F 54% 29.98 in 3.1 mi North 4.6 mph - N/A   Haze
3:20 AM 50.0 °F - 35.6 °F 58% 29.98 in 3.1 mi NE 4.6 mph - N/A   Haze
3:50 AM 48.2 °F - 33.8 °F 58% 29.98 in 3.1 mi West 3.5 mph - N/A   Haze
4:20 AM 46.4 °F 45.2 °F 33.8 °F 62% 29.98 in 3.1 mi NNW 3.5 mph - N/A   Haze
4:50 AM 50.0 °F - 33.8 °F 54% 29.98 in 3.1 mi North 6.9 mph - N/A   Haze
5:20 AM 48.2 °F - 33.8 °F 58% 29.98 in 3.1 mi NW 2.3 mph - N/A   Haze
5:50 AM 48.2 °F - 33.8 °F 58% 30.01 in 3.1 mi NNW 3.5 mph - N/A   Haze
6:20 AM 48.2 °F - 33.8 °F 58% 30.01 in 3.1 mi Variable 1.2 mph - N/A   Haze
6:50 AM 51.8 °F - 39.2 °F 62% 30.01 in 3.1 mi Variable 2.3 mph - N/A   Haze
7:20 AM 55.4 °F - 35.6 °F 47% 30.01 in 3.1 mi NNW 3.5 mph - N/A   Haze
7:50 AM 59.0 °F - 37.4 °F 45% 30.04 in 3.1 mi North 4.6 mph - N/A   Haze
8:20 AM 60.8 °F - 33.8 °F 36% 30.04 in - NNE 6.9 mph - N/A   Clear
8:50 AM 62.6 °F - 33.8 °F 34% 30.04 in - NE 8.1 mph - N/A   Clear
9:20 AM 64.4 °F - 35.6 °F 34% 30.01 in - NNE 6.9 mph - N/A   Clear
9:50 AM 64.4 °F - 35.6 °F 34% 30.01 in - NE 6.9 mph - N/A   Clear
10:20 AM 66.2 °F - 32.0 °F 28% 30.01 in - Variable 4.6 mph - N/A   Clear
10:50 AM 68.0 °F - 33.8 °F 28% 30.01 in - East 3.5 mph - N/A   Clear
11:20 AM 68.0 °F - 33.8 °F 28% 30.01 in - North 4.6 mph - N/A   Clear
11:50 AM 68.0 °F - 30.2 °F 24% 30.01 in - Variable 3.5 mph - N/A   Clear
12:20 PM 69.8 °F - 32.0 °F 25% 30.01 in - NE 4.6 mph - N/A   Clear
12:50 PM 69.8 °F - 30.2 °F 23% 29.98 in - East 3.5 mph - N/A   Clear
1:20 PM 69.8 °F - 33.8 °F 27% 29.98 in - Variable 3.5 mph - N/A   Clear
1:50 PM 71.6 °F - 33.8 °F 25% 29.98 in - Variable 3.5 mph - N/A   Clear
2:20 PM 71.6 °F - 32.0 °F 23% 29.98 in - NNW 3.5 mph - N/A   Clear
2:50 PM 71.6 °F - 32.0 °F 23% 29.95 in - Variable 3.5 mph - N/A   Clear
3:20 PM 71.6 °F - 32.0 °F 23% 29.98 in - SSE 4.6 mph - N/A   Clear
3:50 PM 69.8 °F - 33.8 °F 27% 29.95 in - SSW 4.6 mph - N/A   Clear
4:20 PM 68.0 °F - 35.6 °F 30% 29.98 in - SW 11.5 mph - N/A   Clear
4:50 PM 66.2 °F - 35.6 °F 32% 29.98 in - SW 11.5 mph - N/A   Clear
5:20 PM 64.4 °F - 35.6 °F 34% 30.01 in - WSW 9.2 mph - N/A   Clear
5:50 PM 60.8 °F - 37.4 °F 42% 30.01 in - SW 6.9 mph - N/A   Clear
6:20 PM 60.8 °F - 37.4 °F 42% 30.01 in - WSW 6.9 mph - N/A   Clear
6:50 PM 59.0 °F - 37.4 °F 45% 30.01 in - WSW 4.6 mph - N/A   Clear
7:20 PM 57.2 °F - 39.2 °F 51% 30.01 in - WSW 4.6 mph - N/A   Clear
7:50 PM 59.0 °F - 41.0 °F 51% 30.01 in - WSW 4.6 mph - N/A   Clear
8:20 PM 57.2 °F - 41.0 °F 55% 30.01 in - WSW 3.5 mph - N/A   Clear
8:50 PM 57.2 °F - 41.0 °F 55% 30.04 in - West 3.5 mph - N/A   Clear
9:20 PM 55.4 °F - 39.2 °F 54% 30.04 in - Variable 2.3 mph - N/A   Clear
9:50 PM 51.8 °F - 41.0 °F 67% 30.04 in - Variable 2.3 mph - N/A   Clear
10:20 PM 51.8 °F - 41.0 °F 67% 30.04 in - Variable 2.3 mph - N/A   Clear
10:50 PM 50.0 °F - 41.0 °F 71% 30.04 in - Calm Calm - N/A   Clear
11:20 PM 50.0 °F - 41.0 °F 71% 30.04 in - Calm Calm - N/A   Clear
11:50 PM 50.0 °F - 41.0 °F 71% 30.04 in - Calm Calm - N/A   Clear